Regional Weather Roundup
Issued by NWS State College, PA

Home | Current Version | Previous Version | Text Only | Print | Product List | Glossary On
Versions: 1 2 3 4 5 6 7 8 9 10 11 12 13 14 15 16 17 18 19 20 21 22 23 24 25 26 27 28 29 30 31 32 33 34 35 36 37 38 39 40 41 42 43 44 45 46 47 48 49 50
000
ASUS41 KCTP 280110
RWRCTP

REGIONAL WEATHER ROUNDUP
NATIONAL WEATHER SERVICE STATE COLLEGE PA
900 PM EDT SAT MAY 27 2017

Note: "fair" indicates few or no clouds below 12,000 feet with no
significant weather and/or obstructions to visibility.

* = STATION THAT DOES NOT REPORT PRECIPITATION /E.G. RAIN...SNOW...ETC/
    THUNDER OR FOG.

PAZ002>004-007>009-013>016-020>023-029>032-280200-
WESTERN PENNSYLVANIA

CITY           SKY/WX    TMP DP  RH WIND       PRES   REMARKS
ERIE           CLEAR     62  50  64 NE3       29.90F
MEADVILLE      CLEAR     61  53  75 N6        29.91S
FRANKLIN*      CLEAR     63  52  67 N5        29.91S
NEW CASTLE     FAIR      63  61  93 CALM      29.90S
BEAVER COUNTY  NOT AVBL
BUTLER*        CLOUDY    64  59  82 CALM      29.90S
PITTSBURGH INT CLOUDY    68  63  84 CALM      29.90R
PITTSBURGH     CLOUDY    67  60  78 S3        29.90R
INDIANA*       MOCLDY    64  63  94 CALM      29.93S
LATROBE        CLEAR     64  64 100 CALM      29.92R
WASHINGTON CO* PTCLDY    64  61  88 CALM      29.92S
$$

PAZ004>006-010>012-017>019-024>028-033>037-041-042-045-046-049>053-280200-
CENTRAL PENNSYLVANIA

CITY           SKY/WX    TMP DP  RH WIND       PRES   REMARKS
BRADFORD       MOCLDY    61  53  75 N3        29.93R
DUBOIS         CLEAR     62  55  77 CALM      29.90S
CLEARFIELD     CLEAR     66  57  72 CALM      29.91R
JOHNSTOWN      CLOUDY    59  57  93 CALM      29.93R
ALTOONA        CLOUDY    65  61  87 CALM      29.91F
STATE COLLEGE  MOCLDY    64  57  77 CALM      29.90R
WILLIAMSPORT   MOCLDY    68  55  63 CALM      29.87R
SELINSGROVE    CLEAR     66  58  75 CALM      29.89S
FT INDIANTOWN  CLEAR     63  59  87 CALM      29.90R
CAPITAL CITY   PTCLDY    67  57  70 CALM      29.89S
HARRISBURG     MOCLDY    66  60  81 CALM      29.89S
YORK           CLOUDY    63  63 100 CALM      29.90S
$$

PAZ038>040-043-044-047-048-054-055-060>062-067>071-280200-
EASTERN PENNSYLVANIA

CITY           SKY/WX    TMP DP  RH WIND       PRES   REMARKS
SCRANTON       CLOUDY    64  57  78 E3        29.90S
MOUNT POCONO   CLOUDY    61  54  77 E3        29.93R
ALLENTOWN      MOCLDY    68  53  58 W3        29.89R
QUAKERTOWN*    CLEAR     63  57  82 CALM      29.91R
READING        CLEAR     68  58  70 CALM      29.89R
LANCASTER      CLOUDY    68  60  75 SW3       29.90R
COATESVILLE    MOCLDY    64  59  82 CALM      29.92R
POTTSTOWN      PTCLDY    65  56  72 CALM      29.91R
BLUE BELL      CLEAR     63  55  77 CALM      29.91R
DOYLESTOWN     CLEAR     63  56  78 CALM      29.89R
WILLOW GROVE   NOT AVBL
NORTH PHILA    MOCLDY    69  57  65 SW5       29.90R
PHILADELPHIA   MOCLDY    67  58  72 SW6       29.90R
$$




USA.gov is the U.S. government's official web portal to all federal, state and local government web resources and services.